Boston, MA

7:14 PM EDT on April 24, 2017 (GMT -0400)
Logan International

Weather History for KBOS - March, 2013

Change the Weather History Date:

Tuesday, March 19, 2013

  Actual Average Record
Temperature  
Mean Temperature 32 °F 39 °F  
Max Temperature 36 °F 46 °F 74 °F (2012)
Min Temperature 28 °F 32 °F 5 °F (1876)
Degree Days  
Heating Degree Days 33 26  
Month to date heating degree days 550 539  
Since 1 July heating degree days 4352 4581  
Cooling Degree Days 0 0  
Month to date cooling degree days 0 0  
Year to date cooling degree days 0 0  
Moisture  
Dew Point 32 °F    
Average Humidity 93    
Maximum Humidity 100    
Minimum Humidity 85    
Precipitation  
Precipitation 0.68 in 0.15 in 1.35 in (2013)
Month to date precipitation 1.54 2.55  
Year to date precipitation 7.88 9.16  
Sea Level Pressure  
Sea Level Pressure 29.83 in    
Wind  
Wind Speed 22 mph (NE)    
Max Wind Speed 31 mph    
Max Gust Speed 36 mph    
Visibility 2 miles    
Events Fog , Rain , Snow    
T = Trace of Precipitation, MM = Missing Value Source: NWS Daily Summary

Daily Weather History Graph

Daily Weather History Graph

Search for Another Location

Airport or City:

Trip Planner

Search our weather history database for the weather conditions in past years. The results will help you decide how hot, cold, wet, or windy it might be!

Date:

Astronomy

Mar. 19, 2013 Rise Set
Actual Time 6:48 AM EDT 6:55 PM EDT
Civil Twilight 6:20 AM EDT 7:23 PM EDT
Nautical Twilight 5:47 AM EDT 7:56 PM EDT
Astronomical Twilight 5:14 AM EDT 8:29 PM EDT
Moon 11:29 AM EDT (3/19) 1:46 AM EDT (3/19)
Length of Visible Light 13h 02m
Length of Day
12h 06m
Waxing Crescent, 49% of the Moon is Illuminated
Mar 19
Waxing Crescent
Mar 19
First Quarter
Mar 27
Full
Apr 3
Last Quarter
Apr 10
New

Hourly Weather History & Observations

Time (EDT) Temp. Windchill Dew Point Humidity Pressure Visibility Wind Dir Wind Speed Gust Speed Precip Events Conditions
12:19 AM 28.4 °F 16.2 °F 26.6 °F 93% 30.25 in 0.8 mi ESE 17.3 mph - 0.00 in Snow Light Snow
12:28 AM 30.2 °F 18.5 °F 26.6 °F 86% 30.24 in 0.8 mi ESE 17.3 mph - 0.01 in Snow Light Snow
12:54 AM 30.0 °F 17.9 °F 28.0 °F 92% 30.22 in 0.5 mi East 18.4 mph - 0.02 in Fog , Snow Snow
1:54 AM 30.9 °F 17.8 °F 28.9 °F 92% 30.17 in 0.5 mi ESE 23.0 mph - 0.04 in Snow Light Snow
2:54 AM 30.9 °F 19.1 °F 28.9 °F 92% 30.12 in 0.5 mi SE 18.4 mph - 0.03 in Snow Light Snow
3:54 AM 32.0 °F 19.8 °F 30.0 °F 92% 30.11 in 0.5 mi ESE 20.7 mph - 0.02 in Fog , Snow Snow
4:36 AM 32.0 °F 19.2 °F 30.2 °F 93% 30.08 in 1.0 mi East 23.0 mph 31.1 mph 0.03 in Snow Light Snow
4:45 AM 32.0 °F 18.9 °F 30.2 °F 93% 30.07 in 0.8 mi East 24.2 mph 29.9 mph 0.03 in Snow Light Snow
4:54 AM 32.0 °F 18.6 °F 30.9 °F 96% 30.06 in 0.8 mi East 25.3 mph 31.1 mph 0.04 in Snow Light Snow
5:16 AM 32.0 °F 18.6 °F 30.2 °F 93% 30.07 in 0.2 mi East 25.3 mph - 0.01 in Fog , Snow Heavy Snow
5:54 AM 32.0 °F 18.4 °F 30.9 °F 96% 30.06 in 0.8 mi East 26.5 mph 32.2 mph 0.04 in Snow Light Snow
6:54 AM 32.0 °F 18.1 °F 30.9 °F 96% 30.03 in 0.8 mi East 27.6 mph 32.2 mph 0.03 in Snow Light Snow
7:54 AM 32.0 °F 18.1 °F 32.0 °F 100% 30.01 in 0.8 mi East 27.6 mph 33.4 mph 0.02 in Snow Light Snow
8:15 AM 33.8 °F 21.6 °F 32.0 °F 93% 29.99 in 0.8 mi East 23.0 mph - 0.00 in Snow Light Snow
8:30 AM 33.8 °F 21.0 °F 33.8 °F 100% 29.99 in 0.8 mi East 25.3 mph 29.9 mph 0.01 in Snow Light Snow
8:38 AM 33.8 °F 21.0 °F 32.0 °F 93% 29.98 in 1.5 mi East 25.3 mph 33.4 mph 0.01 in Snow Light Snow
8:54 AM 33.1 °F 19.6 °F 33.1 °F 100% 29.97 in 1.5 mi East 27.6 mph 32.2 mph 0.01 in Snow Light Snow
9:25 AM 33.8 °F 20.8 °F 33.8 °F 100% 29.95 in 2.0 mi East 26.5 mph 32.2 mph 0.01 in Rain Light Ice Pellets
9:54 AM 34.0 °F 21.3 °F 33.1 °F 96% 29.94 in 1.8 mi East 25.3 mph 32.2 mph 0.02 in Rain Light Ice Pellets
10:01 AM 33.8 °F 21.3 °F 33.8 °F 100% 29.93 in 2.0 mi East 24.2 mph - 0.01 in Rain Light Ice Pellets
10:23 AM 33.8 °F 21.3 °F 33.8 °F 100% 29.91 in 1.8 mi East 24.2 mph 33.4 mph 0.03 in Rain Light Ice Pellets
10:54 AM 34.0 °F 21.3 °F 33.1 °F 96% 29.89 in 1.8 mi East 25.3 mph 33.4 mph 0.07 in Rain Ice Pellets
11:31 AM 33.8 °F 21.0 °F 33.8 °F 100% 29.87 in 2.0 mi East 25.3 mph - 0.03 in Rain Light Ice Pellets
11:54 AM 34.0 °F 21.0 °F 33.1 °F 96% 29.85 in 2.0 mi East 26.5 mph - 0.03 in Rain Light Rain
12:26 PM 33.8 °F 21.3 °F 33.8 °F 100% 29.82 in 3.0 mi ENE 24.2 mph - 0.01 in Rain Light Rain
12:54 PM 35.1 °F 22.7 °F 34.0 °F 96% 29.80 in 4.0 mi ENE 25.3 mph 32.2 mph 0.01 in Rain Light Rain
1:29 PM 35.6 °F 23.7 °F 33.8 °F 93% 29.77 in 2.0 mi ENE 24.2 mph 32.2 mph 0.00 in Rain Light Rain
1:43 PM 35.6 °F 23.2 °F 33.8 °F 93% 29.75 in 1.8 mi ENE 26.5 mph - 0.00 in   Light Drizzle
1:54 PM 35.1 °F 23.0 °F 34.0 °F 96% 29.74 in 2.0 mi ENE 24.2 mph 32.2 mph 0.00 in   Light Drizzle
2:07 PM 35.6 °F 23.0 °F 33.8 °F 93% 29.71 in 1.5 mi ENE 27.6 mph 35.7 mph 0.00 in Rain Light Rain
2:54 PM 36.0 °F 25.3 °F 35.1 °F 97% 29.69 in 1.2 mi ENE 19.6 mph 29.9 mph 0.04 in Rain Rain
3:31 PM 33.8 °F 23.2 °F 33.8 °F 100% 29.72 in 1.5 mi NNE 17.3 mph - 0.14 in Rain Rain
3:43 PM 33.8 °F 22.2 °F 33.8 °F 100% 29.70 in 1.8 mi NNE 20.7 mph - 0.18 in Rain , Snow Light Snow
3:54 PM 34.0 °F 22.7 °F 33.1 °F 96% 29.70 in 2.0 mi NNE 19.6 mph - 0.19 in Rain , Snow Light Snow
4:14 PM 32.0 °F 23.0 °F 32.0 °F 100% 29.70 in 1.5 mi North 11.5 mph - 0.02 in Snow Light Snow
4:31 PM 32.0 °F 18.4 °F 32.0 °F 100% 29.64 in 1.0 mi NE 26.5 mph 31.1 mph 0.03 in Snow Light Snow
4:39 PM 33.8 °F 20.5 °F 33.8 °F 100% 29.63 in 0.8 mi NE 27.6 mph 33.4 mph 0.05 in Snow Light Snow
4:50 PM 33.8 °F 21.0 °F 32.0 °F 93% 29.63 in 1.2 mi NE 25.3 mph 33.4 mph 0.05 in Rain , Snow Light Snow
4:54 PM 33.1 °F 20.3 °F 32.0 °F 96% 29.63 in 1.8 mi NE 24.2 mph 33.4 mph 0.05 in Rain , Snow Light Snow
5:02 PM 33.8 °F 21.0 °F 32.0 °F 93% 29.63 in 3.0 mi NE 25.3 mph 31.1 mph 0.01 in Rain , Snow Light Snow
5:54 PM 34.0 °F 21.0 °F 32.0 °F 92% 29.61 in 10.0 mi NNE 26.5 mph 33.4 mph 0.01 in   Overcast
6:46 PM 33.8 °F 22.2 °F 32.0 °F 93% 29.62 in 1.8 mi NNE 20.7 mph 33.4 mph 0.00 in Snow Light Snow
6:54 PM 33.1 °F 20.3 °F 32.0 °F 96% 29.61 in 1.2 mi NNE 24.2 mph 27.6 mph 0.00 in Snow Light Snow
7:14 PM 33.8 °F 21.9 °F 32.0 °F 93% 29.61 in 2.0 mi North 21.9 mph 26.5 mph 0.01 in Snow Light Snow
7:34 PM 33.8 °F 22.5 °F 32.0 °F 93% 29.61 in 3.0 mi North 19.6 mph - 0.01 in Snow Light Snow
7:54 PM 33.1 °F 20.9 °F 32.0 °F 96% 29.61 in 5.0 mi NNE 21.9 mph - 0.01 in Rain Light Rain
8:54 PM 34.0 °F 26.0 °F 32.0 °F 92% 29.62 in 6.0 mi NNW 10.4 mph 20.7 mph 0.00 in Snow Light Snow
9:13 PM 33.8 °F 24.3 °F 30.2 °F 87% 29.66 in 2.5 mi WNW 13.8 mph - 0.01 in Snow Light Freezing Drizzle
9:29 PM 32.0 °F 23.0 °F 30.2 °F 93% 29.66 in 2.0 mi NW 11.5 mph 21.9 mph 0.01 in Snow Light Freezing Drizzle
9:32 PM 32.0 °F 23.0 °F 30.2 °F 93% 29.66 in 1.2 mi NW 11.5 mph 21.9 mph 0.02 in Snow Light Freezing Drizzle
9:42 PM 32.0 °F 21.6 °F 30.2 °F 93% 29.66 in 1.2 mi NW 15.0 mph 23.0 mph 0.02 in Snow Light Snow
9:54 PM 32.0 °F 21.6 °F 30.9 °F 96% 29.67 in 1.2 mi NW 15.0 mph - 0.03 in Snow Light Snow
10:54 PM 28.9 °F 16.5 °F 27.0 °F 92% 29.68 in 1.2 mi NNW 18.4 mph 26.5 mph 0.00 in Snow Light Snow
11:02 PM 30.2 °F 19.3 °F 26.6 °F 86% 29.69 in 3.0 mi NW 15.0 mph - 0.00 in Snow Light Snow
11:54 PM 28.9 °F 16.9 °F 24.1 °F 82% 29.69 in 10.0 mi NW 17.3 mph 23.0 mph N/A   Overcast